Location: Dammartin
(48.9032°N, 1.6195°E)
Time: 16:22:01
(UTC+00:00)

BlueWalker 3 - Pass Details

Date: 19 April 2024
Orbit: 482 x 494 km, 53.2° (Epoch: 22 May)

Event Time Altitude Azimuth Distance (km) Brightness Sun altitude
Rises 20:08:52 0° 232° (SW) 2,564 5.8 -12.1°
Reaches altitude 10° 20:11:02 10° 229° (SW) 1,687 4.8 -12.4°
Maximum altitude 20:14:48 63° 149° (SSE) 558 1.9 -12.9°
Drops below altitude 10° 20:18:37 10° 68° (ENE) 1,702 4.3 -13.4°
Enters shadow 20:19:29 - 66° (ENE) 2,048 4.7 -13.5°
